Location: ???? ?????
(37.9132°N, 22.9869°E)
Time: 21:52:22
(UTC+00:00)

Cosmos 2221 - Pass Details

Date: 04 August 2024
Orbit: 579 x 600 km, 82.5° (Epoch: 17 September)

Event Time Altitude Azimuth Distance (km) Brightness Sun altitude
Rises 20:06:30 0° 2° (N) 2,857 6.7 -25.1°
Reaches altitude 10° 20:08:53 10° 12° (NNE) 1,952 5.6 -25.4°
Enters shadow 20:11:25 27° 41° (NE) 1,170 4.0 -25.7°
